Theta_e
350 347 346 349 347 351 351 352 348 346 345 347 345 346 348 350 348 352 347 362 362 363 363 361 360 360 360 360 360 359 358 359 360 359 359 359 361 361 360 359 360 360 361
346 346 350 351 352 355 353 352 348 348 347 348 348 346 347 352 349 348 349 354 363 363 364 363 361 361 360 359 359 359 359 358 360 359 361 360 359 360 359 359 359 360 361
354 341 341 343 349 349 353 353 351 353 349 349 347 347 350 350 350 348 350 351 358 362 363 363 364 364 362 358 358 359 359 359 359 359 359 359 359 359 360 359 360 360 358
349 346 344 342 346 344 344 349 345 347 341 344 349 349 351 347 348 350 350 351 354 354 362 363 364 363 362 359 357 358 358 357 356 356 357 355 357 359 359 359 360 359 359
348 339 338 337 339 345 338 344 345 347 341 344 349 349 350 349 346 351 348 352 352 352 353 362 363 362 360 358 357 357 358 359 359 358 357 358 357 357 357 358 359 358 359
349 341 337 339 342 346 338 342 344 350 346 345 352 348 347 351 349 349 349 352 350 348 349 352 355 356 360 360 361 361 358 358 357 356 357 357 357 358 358 357 358 358 357
351 347 340 347 345 346 345 342 347 347 342 346 342 338 345 345 347 345 346 348 349 347 351 350 353 351 354 359 361 358 357 352 353 354 357 357 357 356 356 356 357 358 358
349 352 348 349 349 350 349 349 346 344 342 341 340 336 329 336 339 346 343 347 347 348 349 348 349 347 349 351 353 359 356 352 351 353 355 356 356 356 356 356 355 356 357
352 352 352 351 348 351 345 341 340 346 334 340 340 331 330 327 331 334 340 345 344 345 347 350 348 347 348 348 355 355 355 353 353 352 353 356 356 356 356 355 355 355 355
345 356 353 352 351 352 347 347 352 346 344 336 343 344 335 337 326 321 335 343 345 344 345 349 348 349 348 352 355 354 354 354 354 353 353 356 357 356 355 355 355 355 355
338 349 355 354 352 352 350 349 348 347 347 343 342 336 334 337 335 331 331 336 342 343 343 344 348 347 352 350 349 351 355 354 354 354 355 355 354 352 353 354 355 354 354
335 349 356 354 352 350 350 351 351 349 348 348 343 339 339 339 338 336 331 329 335 339 343 345 344 349 349 347 351 354 354 352 351 351 352 354 356 354 351 355 354 354 355
348 350 351 352 352 353 351 351 351 349 349 348 348 346 345 343 344 337 334 330 330 334 341 348 347 351 352 349 349 352 351 348 346 345 346 347 350 352 354 354 354 355 355
346 348 352 348 352 353 352 351 352 350 350 351 349 349 347 340 346 345 337 331 324 327 337 339 347 347 347 347 349 349 343 343 342 341 341 342 344 345 347 349 352 355 355
356 351 347 342 343 345 353 353 351 350 348 350 347 349 348 348 349 348 342 333 331 326 327 339 342 348 348 347 347 342 339 341 340 338 338 338 338 340 341 343 344 347 349
350 346 345 340 339 347 356 353 351 350 350 350 352 350 350 350 351 345 346 337 339 339 329 339 340 347 347 346 345 339 338 338 337 336 335 334 335 336 336 337 339 341 345
350 348 347 345 349 351 353 353 352 350 349 349 350 349 347 349 349 345 339 344 343 339 332 339 344 346 345 342 340 336 335 333 333 333 332 330 330 330 331 332 335 338 340
350 349 348 348 352 353 352 351 350 351 349 348 350 349 349 354 347 350 347 347 346 343 339 334 332 330 342 341 336 336 335 332 330 330 329 328 327 327 327 327 328 333 335
349 349 351 348 346 352 354 354 352 350 350 350 351 347 349 348 348 348 348 344 345 347 339 334 337 340 346 342 340 336 331 326 329 329 328 328 327 325 326 325 325 327 330
350 351 350 351 350 349 352 351 353 352 350 352 353 352 351 349 347 348 349 346 345 342 343 342 341 342 345 343 339 332 328 328 326 329 330 327 326 326 325 324 325 323 321
351 353 352 351 351 352 351 347 351 351 350 350 351 352 352 351 350 349 349 347 346 343 342 339 339 341 342 337 334 333 329 329 328 328 325 323 318 319 321 322 323 323 321
353 352 351 352 352 355 345 342 346 348 349 349 348 349 353 351 349 346 347 350 349 344 340 338 338 339 339 340 338 333 330 325 322 327 320 317 319 317 318 319 322 321 320
353 352 353 354 352 353 343 340 339 340 345 349 349 349 351 354 347 348 342 341 341 342 345 344 338 340 339 341 339 334 331 328 324 323 318 315 318 315 318 319 320 320 319
353 351 349 348 348 351 338 337 337 339 343 345 349 349 349 348 348 348 347 343 343 343 340 343 343 345 344 346 342 339 333 328 322 321 319 312 316 314 316 317 319 318 317
346 348 348 348 348 350 339 334 332 339 338 344 346 347 349 349 343 338 344 344 345 346 335 333 334 336 341 341 342 334 327 323 316 316 317 314 313 312 313 313 315 317 315
338 341 338 338 337 342 337 332 330 343 342 345 345 347 338 345 334 333 340 342 343 344 340 336 335 336 337 340 335 339 330 327 317 313 316 312 312 311 307 312 312 312 312
Wind_Speed
4 1 3 1 2 4 6 4 3 3 1 1 1 2 3 6 7 4 5 16 14 13 14 14 13 12 12 11 10 9 9 8 11 11 11 10 10 10 10 10 10 8 7
2 3 3 3 2 2 3 4 3 4 4 4 5 7 7 5 8 7 4 7 11 10 13 13 13 12 11 11 10 10 8 8 8 7 9 9 10 10 10 11 11 10 8
7 5 4 1 2 3 7 4 4 1 2 2 6 8 7 7 8 8 5 4 5 10 10 11 12 11 11 11 10 8 6 6 6 6 5 6 10 10 11 10 10 10 9
9 4 2 3 3 4 3 2 3 0 2 2 3 4 3 3 2 6 7 5 4 5 8 12 10 11 12 12 10 9 8 8 7 6 5 5 6 8 9 10 10 10 8
8 6 2 1 4 4 2 3 1 3 3 0 6 4 4 3 4 2 8 11 9 6 5 10 12 12 13 12 10 10 9 8 8 8 8 9 8 8 7 7 8 8 8
7 4 2 1 2 1 4 4 3 3 1 2 4 2 3 4 3 3 4 7 8 5 6 6 6 6 13 12 10 9 8 7 6 6 6 7 8 9 9 9 8 8 9
8 7 4 2 3 4 6 6 3 1 3 6 3 4 2 4 5 5 5 6 5 6 7 7 5 4 5 9 10 7 7 7 7 7 7 9 8 8 8 10 10 9 9
3 6 7 5 5 2 5 4 3 2 4 3 2 1 4 6 4 1 3 4 6 4 6 8 8 7 6 4 6 9 7 6 5 5 5 6 7 7 7 8 8 9 9
4 4 2 4 1 1 2 1 3 1 3 2 5 4 1 4 2 3 2 1 5 5 5 8 8 7 7 6 6 8 7 5 4 3 2 4 7 7 7 7 7 9 9
3 3 3 4 3 2 2 1 2 2 4 2 3 2 1 2 3 4 3 4 6 4 6 8 5 8 7 5 9 9 8 6 4 2 2 3 5 7 8 8 7 8 8
4 1 4 3 3 2 2 3 1 2 3 4 2 2 1 3 2 4 3 4 3 2 4 3 6 4 8 6 5 6 9 6 5 4 5 5 2 3 4 9 8 9 9
3 3 5 2 3 3 2 1 3 1 2 4 4 3 2 4 4 3 3 2 2 4 3 3 4 5 7 5 8 10 9 8 6 6 7 8 7 4 3 7 8 8 9
3 6 5 4 2 3 2 2 3 3 3 2 3 5 4 4 4 2 1 3 2 2 3 4 2 6 8 6 7 9 8 8 8 8 9 9 10 10 10 3 6 9 10
5 4 4 1 3 2 4 4 3 3 2 3 4 5 3 4 3 3 3 4 2 2 2 3 0 4 6 6 10 13 5 9 9 9 9 9 9 10 10 10 10 4 5
2 4 7 5 4 5 5 4 4 3 2 2 5 6 3 4 3 6 4 2 5 5 5 4 3 3 6 7 10 5 5 10 9 9 9 9 8 8 9 9 9 8 7
4 6 5 4 5 6 5 3 2 3 2 3 3 4 4 2 3 3 4 5 5 3 2 3 1 4 5 5 9 5 6 10 10 8 9 9 8 8 8 7 8 8 7
4 6 7 7 7 5 5 3 5 5 4 4 4 4 5 3 3 1 1 1 3 4 5 1 2 4 5 5 7 6 6 6 5 9 10 11 9 8 7 6 5 6 7
5 5 5 5 5 6 6 6 6 5 5 5 6 4 5 4 5 4 4 4 2 4 4 4 2 2 4 7 6 7 6 4 4 7 9 11 10 9 8 6 4 3 5
7 6 6 7 7 6 6 6 7 7 7 7 6 6 7 6 6 3 3 2 1 3 3 3 4 3 3 8 8 6 7 5 5 9 9 11 12 12 10 8 5 2 4
7 7 7 7 7 7 7 6 7 8 8 7 7 7 7 7 7 6 5 5 3 3 5 5 4 3 8 6 5 6 4 3 4 4 5 7 8 11 11 9 8 6 4
8 7 7 7 7 7 7 7 7 6 6 6 7 6 6 8 11 9 5 6 4 3 3 3 3 3 6 7 9 5 4 5 3 3 4 3 3 4 5 6 7 8 8
7 7 7 7 7 6 9 11 9 6 7 7 7 7 7 8 7 9 13 11 9 6 4 3 3 5 5 8 7 8 6 6 3 3 3 2 2 3 3 3 8 10 12
5 6 6 6 7 7 11 12 8 6 6 7 8 6 6 7 7 6 10 9 7 8 7 6 6 6 6 9 9 9 9 8 4 6 6 2 1 3 2 3 10 11 13
6 5 5 6 6 7 10 12 8 6 6 8 7 7 8 8 7 7 5 7 8 7 7 6 7 7 6 10 15 13 12 6 6 4 4 3 2 2 2 2 10 10 11
2 1 3 5 5 6 10 11 4 5 5 9 7 7 8 8 9 12 6 7 7 5 4 4 4 5 9 14 13 10 8 9 3 3 3 4 4 3 1 1 3 8 9
1 2 4 5 7 6 9 10 7 4 7 7 7 7 13 12 12 12 8 7 8 7 7 4 3 4 4 7 24 16 13 11 5 3 5 4 6 4 3 1 2 3 4
Wind_Direction
94 104 233 222 231 204 215 187 170 150 213 162 179 235 216 189 208 181 177 197 195 183 170 172 171 175 177 184 190 200 208 216 212 218 221 225 222 220 214 224 227 226 223
98 104 93 356 360 287 245 138 175 177 211 168 206 216 239 210 181 188 184 185 189 189 178 172 174 177 180 187 196 206 213 215 212 217 223 222 230 235 231 222 225 224 223
74 97 55 23 293 4 358 129 179 140 35 324 187 223 222 165 182 177 186 150 177 192 186 175 173 175 186 193 201 205 196 186 198 209 216 209 220 227 231 225 224 225 223
116 125 174 253 25 40 61 354 6 11 339 309 298 241 219 212 198 163 164 159 167 180 193 177 181 178 194 196 199 199 196 196 200 202 216 217 220 215 219 225 226 224 215
137 143 202 289 341 359 31 279 293 194 246 291 278 230 207 211 204 210 140 172 169 177 166 187 187 190 201 196 198 203 210 209 206 208 208 212 218 223 221 221 214 218 216
155 120 179 306 8 332 264 290 236 213 192 180 276 219 232 225 227 174 146 157 189 177 166 173 191 193 207 197 196 209 219 213 211 208 217 222 219 216 218 214 211 207 209
162 157 189 192 174 214 215 237 258 49 42 13 44 337 281 223 176 159 111 166 188 187 193 180 181 194 214 197 198 193 217 225 222 219 240 214 219 222 228 215 213 207 204
207 162 180 201 208 186 199 215 16 29 69 40 119 349 7 338 23 336 290 171 180 172 182 193 198 196 187 183 187 187 199 219 230 231 232 208 215 209 205 209 217 204 199
126 262 202 160 286 38 88 317 328 320 106 218 82 123 111 226 334 338 296 169 185 193 175 205 193 188 183 176 182 183 184 203 224 211 178 226 219 201 197 202 201 193 195
174 284 224 177 185 223 206 230 319 209 108 29 12 152 260 100 34 314 256 223 215 144 173 203 194 185 166 148 173 170 176 186 157 126 85 79 138 183 197 188 183 183 189
232 206 277 174 208 226 180 172 310 332 102 138 214 105 74 59 134 239 328 336 356 69 13 318 196 149 159 142 132 166 164 142 115 100 86 71 72 192 219 175 180 182 192
258 272 266 244 234 208 147 142 298 323 200 158 190 164 203 116 242 197 181 234 247 324 307 280 219 149 135 136 152 156 142 127 112 91 73 54 71 122 146 167 177 181 187
234 236 219 216 234 215 225 198 214 224 225 240 231 193 175 174 185 176 141 214 229 357 283 300 220 148 140 142 135 129 132 119 104 88 77 66 74 73 61 88 209 197 197
238 233 145 96 280 273 238 243 215 216 221 231 247 272 179 168 196 139 181 142 48 323 295 223 160 109 128 127 136 133 140 120 111 102 91 83 76 78 72 59 50 136 197
188 155 178 195 233 262 258 233 220 218 176 252 243 265 252 253 163 183 156 183 153 178 235 253 138 129 137 139 142 138 135 124 111 105 95 84 78 69 69 69 62 59 80
154 175 189 202 245 248 243 197 220 250 253 251 242 266 260 250 300 124 174 185 244 142 249 216 280 90 75 121 141 118 119 109 102 95 90 79 67 66 62 63 72 64 65
181 167 193 212 222 233 247 223 230 250 256 259 258 257 261 253 239 244 269 153 203 139 145 325 113 121 123 149 130 124 109 112 101 101 92 82 70 60 49 43 69 89 73
227 203 222 219 235 229 226 229 230 233 240 248 241 251 248 251 259 237 197 244 179 163 128 153 144 200 146 146 148 142 139 122 109 102 99 89 69 58 52 42 39 99 105
225 225 215 225 231 240 237 227 224 227 238 239 235 233 241 238 253 250 239 267 285 123 123 136 185 149 148 156 162 140 134 135 118 124 105 92 78 60 45 46 57 98 136
210 215 215 216 215 221 232 240 227 221 228 239 233 225 228 223 228 236 233 232 187 180 173 140 210 141 156 151 155 149 147 140 141 154 131 118 83 62 56 46 56 66 79
216 211 216 221 218 222 233 236 244 242 230 236 247 245 228 222 222 213 200 223 188 210 204 165 174 134 168 162 178 167 156 145 141 167 128 76 62 51 35 35 57 72 85
206 213 223 218 225 236 239 231 224 235 238 232 240 240 242 241 247 255 218 199 183 190 209 169 184 189 185 179 163 164 147 149 174 157 114 87 78 69 32 37 85 94 96
216 228 232 226 236 231 232 239 215 228 250 249 239 231 237 240 226 223 229 214 201 207 179 174 185 197 177 169 161 172 174 182 165 155 116 119 101 100 52 79 94 99 105
225 234 261 259 262 260 256 259 226 215 233 239 231 231 229 235 225 209 218 220 217 220 215 204 196 195 199 171 177 181 171 135 89 128 119 131 159 106 92 73 102 104 103
307 251 278 279 270 271 267 261 234 214 242 253 238 229 224 231 228 228 214 232 229 222 128 132 147 205 209 168 154 131 154 153 135 168 169 124 161 123 121 97 98 111 110
322 296 300 298 293 287 282 274 222 217 227 233 238 231 224 224 225 222 207 214 221 220 175 176 239 250 229 196 167 172 163 176 134 145 180 127 149 154 151 166 151 123 122